This demonstration page uses our WeatherBlox Daily Observations layout. Learn more.

Left ArrowRight Arrow

41.86663, -103.66717

Hourly Observations for January 8, 2016

Temp ( °F °C ) Dew Point ( °F °C ) Humidity (%) Winds ( mph kmh ) Pressure ( in mb ) Visibility ( mi km ) Precip ( " mm )
12:53 am 00:53 Cloudy 22 -5.6 16 -8.9 78 78 NE 5 7 29.93 1014 10 16 N/A
1:53 am 01:53 Cloudy 20 -6.7 14 -10 78 78 NE 6 9 29.96 1015 10 16 N/A
2:40 am 02:40 Cloudy 19 -7 12 -11 73 73 NNE 5 7 30.12 1020 10 16 N/A
2:53 am 02:53 Cloudy 19 -7.2 13 -10.6 77 77 N 5 7 29.98 1015 10 16 N/A
3:38 am 03:38 Cloudy with Light Snow 19 -7 12 -11 73 73 NNE 6 9 30.12 1020 3 5 N/A
3:53 am 03:53 Cloudy with Light Snow 19 -7.2 14 -10 81 81 NNE 5 7 29.99 1016 4 6 N/A
4:21 am 04:21 Cloudy with Light Snow 18 -7.8 14 -10 84 84 N N/A 30.15 1021 2 3 N/A
4:53 am 04:53 Cloudy with Light Snow 18 -7.8 14 -10 84 84 NW 5 7 30.01 1016 3 4 0.01 0.25
5:44 am 05:44 Cloudy with Light Snow 19 -7 16 -9 86 86 NW 6 9 30.12 1020 3 5 N/A
5:53 am 05:53 Cloudy with Light Snow 19 -7.2 15 -9.4 84 84 NW 7 11 30.02 1017 3 5 N/A
6:01 am 06:01 Cloudy with Light Snow 19 -7.2 14 -10 81 81 NW 7 11 30.15 1021 2 3 N/A
6:50 am 06:50 Cloudy with Light Snow 19 -7 16 -9 86 86 NNW 7 11 30.15 1021 3 5 N/A
6:53 am 06:53 Cloudy with Light Snow 19 -7.2 15 -9.4 84 84 NNW 6 9 30.05 1018 3 5 0.01 0.25
7:04 am 07:04 Cloudy with Light Snow 19 -7 16 -9 86 86 NNW 5 7 30.15 1021 3 4 N/A
7:15 am 07:15 Cloudy with Light Snow 19 -7.2 15 -9.4 84 84 N 6 9 30.15 1021 3 5 N/A
7:36 am 07:36 Cloudy with Light Snow 19 -7 16 -9 86 86 N 6 9 30.15 1021 2 3 N/A
7:53 am 07:53 Cloudy with Light Snow 19 -7.2 15 -9.4 84 84 NNW 5 7 30.06 1018 3 4 0.01 0.25
8:35 am 08:35 Cloudy with Light Snow 19 -7.2 15 -9.4 84 84 NNW 6 9 30.15 1021 2 3 N/A
8:53 am 08:53 Cloudy with Light Snow 19 -7.2 15 -9.4 84 84 NW 5 7 30.08 1019 2 3 0.01 0.25
9:19 am 09:19 Cloudy with Light Snow 20 -6.7 14 -10 78 78 NW 6 9 30.18 1022 3 5 N/A
9:28 am 09:28 Cloudy with Light Snow 19 -7 14 -10 79 79 NNW 7 11 30.18 1022 3 4 N/A
9:40 am 09:40 Cloudy with Light Snow 19 -7 14 -10 79 79 NNW 7 11 30.18 1022 3 5 N/A
9:53 am 09:53 Cloudy with Light Snow 20 -6.7 15 -9.4 81 81 NW 6 9 30.08 1019 4 6 N/A
10:53 am 10:53 Cloudy with Light Snow 22 -5.6 15 -9.4 75 75 N 9 15 30.08 1019 4 6 N/A
11:05 am 11:05 Cloudy with Haze 22 -5.6 15 -9.4 75 75 N 8 13 30.18 1022 4 6 N/A
11:53 am 11:53 Cloudy 23 -5 15 -9.4 72 72 NW 13 20 30.06 1018 7 11 N/A
12:53 pm 12:53 Cloudy with Haze 24 -4.4 15 -9.4 68 68 N 12 19 30.05 1018 6 10 N/A
1:53 pm 13:53 Cloudy 24 -4.4 16 -8.9 71 71 NNW 12 19 30.06 1018 7 11 N/A
2:31 pm 14:31 Cloudy 24 -4.4 16 -8.9 71 71 N 10 17 30.09 1019 9 14 N/A
2:41 pm 14:41 Cloudy 24 -4.4 16 -8.9 71 71 N 10 17 30.09 1019 8 13 N/A
2:53 pm 14:53 Cloudy with Haze 24 -4.4 16 -8.9 71 71 NNE 9 15 30.07 1018 6 10 N/A
3:38 pm 15:38 Cloudy with Haze 25 -4 18 -8 74 74 N 7 11 30.15 1021 4 6 N/A
3:53 pm 15:53 Cloudy with Haze 24 -4.4 17 -8.3 75 75 N 7 11 30.10 1019 4 6 N/A
4:53 pm 16:53 Cloudy 21 -6.1 15 -9.4 78 78 N 6 9 30.12 1020 7 11 N/A
5:53 pm 17:53 Cloudy 22 -5.6 16 -8.9 78 78 N 5 7 30.14 1021 9 14 N/A
6:53 pm 18:53 Cloudy 21 -6.1 14 -10 74 74 N 7 11 30.15 1021 10 16 N/A
7:53 pm 19:53 Cloudy 18 -7.8 14 -10 84 84 NNW 3 6 30.16 1021 7 11 N/A
8:53 pm 20:53 Cloudy with Mist and Fog 18 -7.8 14 -10 84 84 WNW 5 7 30.16 1021 5 8 N/A
9:53 pm 21:53 Cloudy with Light Snow 17 -8.3 13 -10.6 84 84 WNW 7 11 30.16 1022 3 5 N/A
10:53 pm 22:53 Partly Cloudy 16 -8.9 13 -10.6 88 88 WNW 6 9 30.17 1022 7 11 N/A
11:53 pm 23:53 Cloudy with Mist and Fog 15 -9.4 12 -11.1 88 88 WNW 7 11 30.17 1022 6 10 N/A

Powered by AerisWeather